Total_Precipitation_Accumulation
0.89 1.05 1.03 0.93 0.94 0.91 1.00 1.15 1.24 1.09 1.01 1.04 1.09 1.15 1.34 1.40 1.48 1.37 1.21 1.21 1.05 0.89 0.82 0.79 0.81 0.86 0.91 0.92 0.96 1.03 1.10 1.14 1.25 1.45 1.75 2.06 2.35 2.61
1.02 1.12 1.13 1.07 1.08 1.04 1.05 1.15 1.33 1.32 1.19 1.07 1.15 1.16 1.20 1.10 1.20 1.13 1.12 1.17 1.02 0.93 0.89 0.85 0.81 0.80 0.79 0.82 0.83 0.82 0.83 0.84 0.85 0.91 1.01 1.13 1.31 1.59
1.02 1.05 1.06 1.15 1.22 1.22 1.28 1.30 1.34 1.49 1.40 1.15 1.21 1.32 1.31 1.14 1.07 1.05 1.03 1.01 0.97 1.00 0.94 0.90 0.85 0.78 0.72 0.68 0.72 0.74 0.74 0.74 0.73 0.71 0.71 0.74 0.73 0.77
1.05 1.15 1.11 1.14 1.25 1.31 1.45 1.43 1.48 1.69 1.68 1.47 1.43 1.48 1.40 1.30 1.20 1.11 0.98 0.92 0.92 1.01 0.95 0.88 0.80 0.74 0.71 0.69 0.66 0.66 0.66 0.65 0.65 0.63 0.61 0.60 0.60 0.59
1.23 1.27 1.27 1.38 1.37 1.41 1.48 1.47 1.53 1.73 1.87 1.74 1.66 1.74 1.72 1.50 1.37 1.20 1.07 1.07 0.93 0.93 0.95 0.90 0.85 0.80 0.74 0.74 0.74 0.70 0.65 0.61 0.58 0.59 0.62 0.64 0.64 0.63
1.35 1.37 1.38 1.46 1.52 1.59 1.61 1.71 1.82 1.98 2.11 2.03 1.96 2.03 2.04 1.89 1.70 1.40 1.30 1.23 1.11 0.97 1.01 0.98 0.94 0.87 0.80 0.74 0.71 0.71 0.70 0.68 0.65 0.61 0.60 0.62 0.64 0.66
1.32 1.36 1.33 1.38 1.45 1.57 1.59 1.75 1.95 2.14 2.30 2.33 2.32 2.46 2.39 2.21 1.94 1.60 1.51 1.42 1.29 1.12 1.02 0.92 0.87 0.81 0.78 0.77 0.75 0.75 0.73 0.71 0.69 0.68 0.65 0.61 0.59 0.58
1.44 1.46 1.39 1.34 1.33 1.38 1.46 1.58 1.73 1.92 2.17 2.37 2.46 2.52 2.54 2.39 2.17 1.91 1.58 1.34 1.23 1.12 1.11 1.03 0.91 0.86 0.77 0.72 0.80 0.78 0.73 0.71 0.69 0.68 0.67 0.67 0.64 0.60
1.43 1.44 1.29 1.16 1.20 1.15 1.23 1.28 1.31 1.41 1.56 1.80 2.02 2.09 2.24 2.31 2.19 1.89 1.61 1.38 1.21 1.16 1.17 1.07 1.00 0.94 0.84 0.81 0.89 0.78 0.72 0.70 0.68 0.67 0.69 0.70 0.72 0.70
1.25 1.28 1.27 1.16 1.12 1.15 1.15 1.11 1.03 1.04 1.11 1.16 1.31 1.55 1.76 2.00 2.06 1.96 1.87 1.61 1.33 1.12 1.07 1.02 0.92 0.87 0.83 0.81 0.87 0.80 0.74 0.70 0.68 0.67 0.65 0.65 0.66 0.67
1.27 1.27 1.28 1.18 1.18 1.07 1.05 1.04 0.98 0.94 0.93 0.98 1.06 1.24 1.48 1.66 1.86 1.87 1.80 1.69 1.46 1.17 1.02 0.99 0.90 0.86 0.84 0.77 0.76 0.78 0.71 0.71 0.70 0.68 0.65 0.64 0.63 0.62
1.28 1.29 1.29 1.17 1.18 1.09 1.10 1.13 1.05 0.96 0.94 0.91 0.95 1.02 1.10 1.34 1.59 1.60 1.56 1.56 1.44 1.22 0.99 0.95 0.90 0.89 0.92 0.77 0.64 0.63 0.63 0.70 0.74 0.71 0.68 0.64 0.63 0.54
1.22 1.19 1.23 1.19 1.05 0.96 0.92 0.94 0.98 0.96 0.98 0.98 0.96 1.00 1.07 1.17 1.35 1.44 1.48 1.42 1.35 1.17 0.96 0.97 0.97 0.93 0.88 0.78 0.68 0.62 0.58 0.57 0.60 0.64 0.68 0.70 0.67 0.54
1.11 1.11 1.13 1.09 0.94 0.83 0.74 0.73 0.75 0.73 0.80 0.90 0.93 0.92 0.96 1.02 1.16 1.39 1.53 1.50 1.34 1.19 1.10 1.07 1.00 0.95 0.87 0.76 0.68 0.62 0.60 0.57 0.53 0.51 0.54 0.71 0.75 0.75
0.99 1.16 1.15 1.02 0.94 0.87 0.80 0.71 0.65 0.61 0.67 0.76 0.75 0.76 0.79 0.86 1.02 1.32 1.57 1.71 1.59 1.32 1.18 1.11 1.06 1.00 0.93 0.77 0.61 0.54 0.54 0.53 0.50 0.49 0.51 0.58 0.64 0.70
1.00 1.14 1.19 1.16 1.09 1.00 0.90 0.73 0.59 0.57 0.60 0.66 0.71 0.73 0.81 0.90 1.01 1.09 1.33 1.54 1.61 1.44 1.21 1.11 1.05 1.06 0.97 0.80 0.67 0.55 0.48 0.47 0.45 0.48 0.53 0.55 0.59 0.65
1.12 1.26 1.38 1.39 1.36 1.25 1.08 0.92 0.79 0.75 0.72 0.71 0.80 0.83 0.87 0.89 0.92 0.96 1.11 1.27 1.29 1.22 1.16 1.14 1.16 1.14 1.13 1.03 0.82 0.60 0.51 0.44 0.42 0.49 0.57 0.57 0.55 0.58
0.92 1.13 1.40 1.47 1.48 1.45 1.34 1.16 1.01 0.93 0.89 0.87 0.89 0.90 0.90 0.93 0.96 1.01 1.08 1.19 1.19 1.10 1.07 1.05 1.14 1.23 1.18 1.09 0.87 0.68 0.55 0.48 0.44 0.51 0.57 0.58 0.54 0.54
0.64 0.85 1.16 1.37 1.45 1.48 1.41 1.23 1.06 1.01 1.03 0.99 0.96 0.94 0.93 0.94 1.01 1.05 1.08 1.14 1.19 1.13 1.05 1.06 1.12 1.18 1.12 0.92 0.76 0.66 0.63 0.58 0.59 0.58 0.57 0.58 0.54 0.49
0.51 0.68 0.94 1.21 1.31 1.37 1.36 1.29 1.18 1.13 1.12 1.08 1.04 1.01 1.00 1.00 1.00 1.03 1.07 1.10 1.14 1.19 1.12 1.07 1.07 1.06 1.01 0.93 0.83 0.74 0.68 0.71 0.74 0.69 0.61 0.62 0.62 0.62
0.64 0.70 0.86 1.09 1.25 1.35 1.36 1.33 1.28 1.24 1.23 1.22 1.18 1.15 1.11 1.14 1.10 1.04 1.08 1.17 1.20 1.24 1.15 0.96 0.92 1.05 1.17 1.27 1.13 0.86 0.73 0.72 0.79 0.83 0.77 0.78 0.75 0.74
0.84 0.85 0.91 1.05 1.21 1.33 1.36 1.33 1.36 1.34 1.35 1.32 1.28 1.24 1.19 1.19 1.20 1.18 1.19 1.22 1.18 1.15 1.15 1.10 1.13 1.23 1.25 1.21 1.05 0.93 0.85 0.80 0.87 0.90 0.84 0.78 0.74 0.67
0.99 0.95 0.98 1.08 1.18 1.29 1.31 1.29 1.30 1.35 1.34 1.31 1.28 1.26 1.22 1.18 1.18 1.21 1.19 1.23 1.21 1.19 1.25 1.30 1.28 1.24 1.17 1.15 1.08 1.03 0.98 0.91 0.91 0.89 0.77 0.72 0.61 0.54